GPS BIIR-08 1 27663U 03005A 25297.79477705 .00000010 00000+0 00000+0 0 9992 2 27663 54.9377 224.3241 0145242 51.1100 319.9420 2.00573623166598 GPS BIIR-11 1 28190U 04009A 25299.07169808 -.00000012 00000+0 00000+0 0 9991 2 28190 55.0280 285.1397 0107912 166.7361 206.9989 2.00562703158256 GPS BIIR-13 1 28474U 04045A 25299.96497565 -.00000064 00000+0 00000+0 0 9995 2 28474 55.2626 334.2886 0169298 307.3630 50.4485 2.00567431153748 GPS BIIR-14M 1 28874U 05038A 25300.02226260 -.00000005 00000+0 00000+0 0 9999 2 28874 55.0729 282.5813 0133615 292.3787 67.7824 2.00551384147166 METEOSAT-9 (MSG-2) 1 28912U 05049B 25299.98265573 .00000138 00000+0 00000+0 0 9992 2 28912 8.8271 56.4026 0002664 176.9896 201.7106 1.00268957 4679 GPS BIIR-16M 1 29601U 06052A 25298.58608200 .00000010 00000+0 00000+0 0 9995 2 29601 54.9833 223.3084 0086191 87.0702 273.9431 2.00570508138708 GPS BIIR-17M 1 32260U 07047A 25298.89059003 .00000018 00000+0 00000+0 0 9998 2 32260 53.9210 89.7345 0164674 84.5254 277.3474 2.00566543132110 GPS BIIR-18M 1 32384U 07062A 25299.45604976 -.00000008 00000+0 00000+0 0 9990 2 32384 55.2225 283.5419 0032282 163.7848 13.9998 2.00575086130825 GOES 14 1 35491U 09033A 25300.25596214 -.00000055 00000+0 00000+0 0 9990 2 35491 1.0735 85.9490 0003887 125.4719 168.1568 1.00272211 4252 GOES 15 1 36411U 10008A 25300.12851647 .00000047 00000+0 00000+0 0 9997 2 36411 0.6905 85.7295 0005867 151.7540 266.0880 1.00275812 57303 GSAT0101 (GALILEO-PFM) 1 37846U 11060A 25299.97416459 -.00000072 00000+0 00000+0 0 9996 2 37846 57.0636 348.0906 0001735 296.4907 63.5570 1.70475777 87141 GSAT0102 (GALILEO-FM2) 1 37847U 11060B 25300.18914185 -.00000071 00000+0 00000+0 0 9991 2 37847 57.0641 348.0851 0003740 302.5685 234.8490 1.70475852 87156 LUCH 5A 1 37951U 11074B 25300.18628255 -.00000036 00000+0 00000+0 0 9993 2 37951 8.1573 77.2725 0005134 148.4404 44.0140 1.00271916 50712 METEOSAT-10 (MSG-3) 1 38552U 12035B 25300.18773684 .00000008 00000+0 00000+0 0 9994 2 38552 4.1152 61.8058 0000385 78.3779 323.5996 1.00266796 48526 SARSAT 13 (METOP-B) 1 38771U 12049A 25300.26311296 .00000191 00000+0 10731-3 0 9997 2 38771 98.6869 350.9935 0001348 314.5721 45.5346 14.21382443680178 GPS BIIF-3 1 38833U 12053A 25299.98541443 .00000047 00000+0 00000+0 0 9990 2 38833 53.5488 153.1542 0174022 63.1904 298.6651 2.00564642 94762 GSAT0103 (GALILEO-FM3) 1 38857U 12055A 25299.42757432 .00000056 00000+0 00000+0 0 9994 2 38857 55.6630 107.9654 0001639 273.3065 86.6896 1.70473561 81023 GPS BIIF-4 1 39166U 13023A 25299.35050031 -.00000006 00000+0 00000+0 0 9993 2 39166 54.6925 278.4938 0135099 48.2143 312.9238 2.00565424 91194 INSAT-3D 1 39216U 13038B 25300.28471734 -.00000327 00000+0 00000+0 0 9993 2 39216 1.3192 85.5547 0001546 126.0094 56.4019 1.00271935 44743 GPS BIIF-5 1 39533U 14008A 25299.84537190 .00000043 00000+0 00000+0 0 9995 2 39533 53.6232 158.8377 0078399 226.1469 133.2900 2.00571764 85004 LUCH 5V 1 39727U 14023A 25300.27787064 -.00000255 00000+0 00000+0 0 9990 2 39727 4.5477 71.9338 0003629 177.5152 341.2407 1.00268996 42026 GPS BIIF-6 1 39741U 14026A 25300.12548361 -.00000068 00000+0 00000+0 0 9990 2 39741 56.6003 340.5908 0037535 316.9842 42.7825 2.00564755 83868 GPS BIIF-7 1 40105U 14045A 25299.71674356 .00000040 00000+0 00000+0 0 9992 2 40105 55.1989 97.7747 0033318 118.4633 241.8794 2.00569745 81398 GSAT0201 (GALILEO 5) 1 40128U 14050A 25298.95780132 -.00000028 00000+0 00000+0 0 9995 2 40128 49.1317 283.0093 1643484 170.4690 193.0935 1.85519665 73976 GSAT0202 (GALILEO 6) 1 40129U 14050B 25299.75322186 -.00000023 00000+0 00000+0 0 9991 2 40129 49.1473 282.0599 1644121 171.2546 192.0222 1.85520387 76152 GPS BIIF-8 1 40294U 14068A 25297.59791060 -.00000070 00000+0 00000+0 0 9996 2 40294 56.8228 40.0465 0061220 69.8875 290.7820 2.00561963 80485 GLONASS-K 2 1 40315U 14075A 25300.07884705 .00000019 00000+0 00000+0 0 9997 2 40315 63.6136 198.4408 0020575 207.1113 152.8513 2.13101371 84880 GPS BIIF-9 1 40534U 15013A 25298.72603721 .00000010 00000+0 00000+0 0 9999 2 40534 53.2078 213.8778 0104639 37.2067 323.5586 2.00565449 77121 GSAT0203 (GALILEO 7) 1 40544U 15017A 25298.57922510 -.00000077 00000+0 00000+0 0 9991 2 40544 56.8575 347.9949 0006042 257.9996 101.9992 1.70476329 65202 GSAT0204 (GALILEO 8) 1 40545U 15017B 25300.00774187 -.00000072 00000+0 00000+0 0 9994 2 40545 56.8637 347.9736 0005810 248.0132 111.9903 1.70475747 28273 GPS BIIF-10 1 40730U 15033A 25299.38632976 -.00000006 00000+0 00000+0 0 9992 2 40730 54.1712 276.7203 0107989 25.7756 334.7481 2.00568067 75308 METEOSAT-11 (MSG-4) 1 40732U 15034A 25300.26097056 .00000075 00000+0 00000+0 0 9994 2 40732 2.6171 72.1069 0000699 94.8387 332.3261 1.00266153 4887 GSAT0205 (GALILEO 9) 1 40889U 15045A 25298.01613693 .00000002 00000+0 00000+0 0 9999 2 40889 55.0228 228.1034 0004779 27.5848 332.4530 1.70472995 63007 GSAT0206 (GALILEO 10) 1 40890U 15045B 25299.99656388 .00000007 00000+0 00000+0 0 9992 2 40890 55.0209 228.0439 0002788 14.9028 345.1257 1.70473043 63062 GPS BIIF-11 1 41019U 15062A 25299.44527596 -.00000060 00000+0 00000+0 0 9993 2 41019 56.7998 39.8315 0109055 228.7487 130.3280 2.00567158 73144 ELEKTRO-L 2 1 41105U 15074A 25300.18479016 -.00000103 00000+0 00000+0 0 9997 2 41105 6.1036 73.3807 0002943 184.4107 190.0903 1.00272631 36171 GSAT0209 (GALILEO 12) 1 41174U 15079A 25298.99197764 .00000054 00000+0 00000+0 0 9994 2 41174 55.6825 107.6913 0002601 11.8294 348.1908 1.70474288 60786 GSAT0208 (GALILEO 11) 1 41175U 15079B 25299.79868739 .00000058 00000+0 00000+0 0 9995 2 41175 55.6866 107.6663 0002272 25.5608 334.4652 1.70474148 61217 GPS BIIF-12 1 41328U 16007A 25296.03699823 .00000019 00000+0 00000+0 0 9994 2 41328 55.3758 98.8688 0089834 242.6470 116.4457 2.00563434 71088 GSAT0211 (GALILEO 14) 1 41549U 16030A 25299.92229900 .00000007 00000+0 00000+0 0 9998 2 41549 55.1706 228.1110 0003541 349.0305 10.9818 1.70473012 58691 GSAT0210 (GALILEO 13) 1 41550U 16030B 25299.00667231 .00000005 00000+0 00000+0 0 9990 2 41550 55.1703 228.1343 0002574 249.2038 110.7859 1.70473509 58670 INSAT-3DR 1 41752U 16054A 25300.13102981 -.00000066 00000+0 00000+0 0 9991 2 41752 0.0624 81.0367 0013102 184.1472 251.7541 1.00272946 33486 GSAT0207 (GALILEO 15) 1 41859U 16069A 25298.11215087 .00000050 00000+0 00000+0 0 9993 2 41859 55.3515 107.5966 0002042 345.8031 14.2058 1.70474221 55399 GSAT0212 (GALILEO 16) 1 41860U 16069B 25299.72562095 .00000057 00000+0 00000+0 0 9994 2 41860 55.3509 107.5474 0002845 42.3741 317.6624 1.70474439 55677 GSAT0213 (GALILEO 17) 1 41861U 16069C 25298.92009719 .00000053 00000+0 00000+0 0 9991 2 41861 55.3523 107.5771 0001508 296.8280 63.1706 1.70474761 55529 GSAT0214 (GALILEO 18) 1 41862U 16069D 25299.65262792 .00000056 00000+0 00000+0 0 9998 2 41862 55.3520 107.5499 0000696 326.2663 33.7437 1.70474508 55662 GOES 16 1 41866U 16071A 25300.29083708 -.00000080 00000+0 00000+0 0 9994 2 41866 0.0701 72.5537 0002616 159.9536 163.4402 1.00272358 32763 GSAT-17 1 42815U 17040B 25300.10739147 -.00000247 00000+0 00000+0 0 9996 2 42815 0.0943 89.6802 0006287 165.9565 272.2833 1.00271884 30451 GSAT0215 (GALILEO 19) 1 43055U 17079A 25299.55584047 .00000007 00000+0 00000+0 0 9991 2 43055 55.1485 227.9361 0002150 292.0758 67.9208 1.70473791 49002 GSAT0216 (GALILEO 20) 1 43056U 17079B 25299.84715692 .00000007 00000+0 00000+0 0 9996 2 43056 55.1486 227.9280 0003558 294.9865 64.9968 1.70473894 49023 GSAT0217 (GALILEO 21) 1 43057U 17079C 25299.48125739 .00000007 00000+0 00000+0 0 9994 2 43057 55.1470 227.9361 0003277 312.2680 47.7234 1.70473867 49007 GSAT0218 (GALILEO 22) 1 43058U 17079D 25298.52814622 .00000004 00000+0 00000+0 0 9992 2 43058 55.1473 227.9600 0004057 288.2544 71.7169 1.70473905 49013 GOES 17 1 43226U 18022A 25300.25081003 -.00000171 00000+0 00000+0 0 9997 2 43226 0.3337 90.1845 0002778 164.3559 142.1454 1.00271998 28085 GSAT0221 (GALILEO 25) 1 43564U 18060A 25300.19066308 -.00000071 00000+0 00000+0 0 9997 2 43564 57.2383 348.0767 0005915 271.2645 88.7333 1.70476175 45193 GSAT0222 (GALILEO 26) 1 43565U 18060B 25299.23676072 -.00000074 00000+0 00000+0 0 9998 2 43565 57.2421 348.1055 0006292 249.8020 110.1966 1.70476015 45224 GSAT0219 (GALILEO 23) 1 43566U 18060C 25300.04454648 -.00000071 00000+0 00000+0 0 9991 2 43566 57.2411 348.0854 0004859 273.8779 86.1322 1.70476170 45214 GSAT0220 (GALILEO 24) 1 43567U 18060D 25300.26544816 -.00000071 00000+0 00000+0 0 9993 2 43567 57.2401 348.0800 0005483 272.1532 87.8495 1.70476150 45204 BEIDOU-3 M13 1 43622U 18072A 25298.88636387 -.00000011 00000+0 00000+0 0 9991 2 43622 56.4177 70.4043 0004261 306.1158 53.8319 1.86231084 48299 BEIDOU-3 M14 1 43623U 18072B 25299.82574743 -.00000002 00000+0 00000+0 0 9994 2 43623 56.4210 70.3671 0002585 4.4354 355.5574 1.86231071 48300 GPS BIII-1 1 43873U 18109A 25299.69084233 .00000045 00000+0 00000+0 0 9993 2 43873 55.5392 101.4046 0036497 193.5168 180.0181 2.00552514 50394 METEOR-M2 2 1 44387U 19038A 25300.30118470 .00000262 00000+0 13335-3 0 9998 2 44387 98.8926 279.4725 0001236 21.1974 338.9255 14.24261563328149 GPS BIII-2 1 44506U 19056A 25299.56780675 -.00000072 00000+0 00000+0 0 9999 2 44506 55.7382 340.4273 0057502 197.2601 342.4394 2.00565063 45385 BEIDOU-3 M24 1 44542U 19061A 25298.05619706 .00000027 00000+0 00000+0 0 9993 2 44542 54.4013 190.6596 0009221 15.2716 344.8415 1.86229469 41416 BEIDOU-3 M23 1 44543U 19061B 25298.45739420 .00000025 00000+0 00000+0 0 9992 2 44543 54.3990 190.6145 0006558 25.9781 155.9110 1.86229590 41429 BEIDOU-3 M22 1 44793U 19078A 25298.97069858 -.00000043 00000+0 00000+0 0 9996 2 44793 54.1511 308.0624 0004873 22.6667 337.3765 1.86232203 40285 BEIDOU-3 M21 1 44794U 19078B 25299.10727420 -.00000042 00000+0 00000+0 0 9998 2 44794 54.1244 308.0235 0003087 7.4621 352.5642 1.86227870 40292 ELEKTRO-L 3 1 44903U 19095A 25300.34538432 -.00000086 00000+0 00000+0 0 9999 2 44903 0.0552 53.9039 0001824 204.0591 338.4085 1.00272076 21378 GPS BIII-3 1 45854U 20041A 25296.39836279 -.00000080 00000+0 00000+0 0 9991 2 45854 56.5118 38.1464 0059145 201.3504 154.5626 2.00563261 39285 COSMOS 2547 1 46805U 20075A 25295.49728860 .00000026 00000+0 00000+0 0 9990 2 46805 64.5959 200.4069 0007238 234.8221 125.1678 2.13099903 38845 GPS BIII-4 1 46826U 20078A 25289.20312859 -.00000051 00000+0 00000+0 0 9994 2 46826 54.0306 220.6753 0063294 203.5880 326.5084 2.00567133 36612 GSAT0223 (GALILEO 27) 1 49809U 21116A 25300.09128240 -.00000071 00000+0 00000+0 0 9994 2 49809 57.2302 347.9757 0004413 230.7694 113.0731 1.70476353 24206 GSAT0224 (GALILEO 28) 1 49810U 21116B 25297.57638172 -.00000079 00000+0 00000+0 0 9992 2 49810 57.2317 348.0420 0003716 232.8737 120.0958 1.70476487 24183 GOES 18 1 51850U 22021A 25300.27878234 .00000108 00000+0 00000+0 0 9994 2 51850 0.0468 72.2843 0000174 158.4686 128.5414 1.00272689 4256 COSMOS 2557 (706K) 1 52984U 22075A 25296.60154976 -.00000044 00000+0 00000+0 0 9993 2 52984 64.4360 322.8155 0013643 272.9782 86.9200 2.13102163 25677 METEOR-M2 3 1 57166U 23091A 25300.31762691 .00000031 00000+0 32537-4 0 9992 2 57166 98.6447 354.6516 0004935 120.4751 239.6916 14.24017599121378 COSMOS 2569 (703K) 1 57517U 23114A 25295.34016030 .00000000 00000+0 00000+0 0 9994 2 57517 65.1673 80.6499 0008872 288.7945 71.0974 2.13103932 17199 METEOR-M2 4 1 59051U 24039A 25300.27834309 .00000076 00000+0 53493-4 0 9994 2 59051 98.6685 257.9333 0007958 119.1125 241.0850 14.22390311 86151 GSAT0225 (GALILEO 29) 1 59598U 24079A 25299.34883922 .00000054 00000+0 00000+0 0 9991 2 59598 54.9702 107.6206 0002243 155.1609 197.9157 1.70474702 9320 GSAT0227 (GALILEO 30) 1 59600U 24079C 25298.37041700 .00000050 00000+0 00000+0 0 9993 2 59600 54.9656 107.6467 0003987 106.5336 253.5250 1.70474594 9360 GSAT0232 (GALILEO 32) 1 61182U 24167A 25300.11187638 .00000008 00000+0 00000+0 0 9999 2 61182 55.2591 227.7102 0003367 232.1241 311.4816 1.70473432 6902 GSAT0226 (GALILEO 31) 1 61183U 24167B 25297.58143483 .00000001 00000+0 00000+0 0 9999 2 61183 55.2585 227.7849 0001067 228.5793 314.6785 1.70473549 6831